[[{"header":{"parameterUnit":"m.s-1","parameterCategory":1,"la1":30.2991,"la2":30.254,"lo1":-89.0895,"lo2":-89.0444,"dy":0.0017,"dx":0.0017,"nx":28,"ny":28,"refTime":"2023-09-19T21:00:00:Z","depth":0,"parameterNumber":2,"parameterNumberName":"U-component_of_WINDS"},"data":[0,0,0,0,0,0,0,0,0,0,0,0,0,0,0,0,0,0,0,0,0,0,0,0,0,0,0,0,0,0,0,0,0,0,0,0,0,0,0,0,0,0,0,0,0,0,0,0,0,0,0,0,0,0,0,0,0,0,-6.4369,-6.437,0,-6.4413,-6.4414,-6.4414,-6.4291,-6.4288,-6.4284,-6.428,-6.4329,-6.4334,-6.4339,0,0,0,0,0,0,0,0,0,0,0,0,0,-6.4182,-6.4186,-6.4369,-6.437,-6.437,-6.4413,-6.4414,-6.4415,-6.4292,-6.4287,-6.4283,-6.4278,-6.4327,-6.4333,-6.4339,0,0,0,0,0,0,0,0,0,0,0,0,0,-6.4249,-6.4187,-6.4369,-6.4314,-6.431,-6.4413,-6.4414,-6.4415,-6.4293,-6.4287,-6.4282,-6.4276,-6.4326,-6.4333,-6.434,-6.4499,0,0,-6.4362,-6.4365,0,0,0,0,0,0,0,0,-6.4245,-6.4256,-6.4322,-6.4318,-6.4313,-6.4341,-6.4366,-6.4443,-6.4295,-6.43,-6.428,-6.4273,-6.4338,-6.4344,-6.4365,-6.4502,-6.4504,-6.4363,-6.4367,-6.437,-6.4372,0,0,0,0,0,0,0,-6.4241,-6.4253,-6.4387,-6.4323,-6.4318,-6.4289,-6.4292,-6.438,-6.435,-6.4299,-6.429,-6.4297,-6.4334,-6.4358,-6.4365,-6.4504,-6.4363,-6.4369,-6.4373,-6.4376,-6.4775,-6.4781,0,0,0,0,0,0,-6.4243,-6.425,-6.4385,-6.4388,-6.4264,-6.4297,-6.43,-6.4338,-6.4349,-6.4345,-6.4301,-6.4291,-6.4348,-6.4357,-6.4366,-6.4554,-6.437,-6.4377,-6.4381,-6.4769,-6.4776,-6.4783,0,0,0,0,0,0,-6.4239,-6.4256,-6.4383,-6.4317,-6.4331,-6.4306,-6.4349,-6.4342,-6.4365,-6.4351,-6.4346,-6.4331,-6.4344,-6.4356,-6.4467,-6.4554,-6.438,-6.4387,-6.4761,-6.4771,-6.478,-6.493,0,0,0,0,0,0,-6.4234,-6.4255,-6.4315,-6.4319,-6.4335,-6.4483,-6.4355,-6.4347,-6.4378,-6.4364,-6.4377,-6.4374,-6.4341,-6.4457,-6.4474,-6.4561,-6.4393,-6.4753,-6.4766,-6.4777,-6.4918,-6.4944,-6.4966,0,0,0,0,0,-6.4228,-6.4356,-6.4318,-6.4335,-6.4408,-6.4488,-6.4497,-6.4455,-6.4385,-6.4445,-6.4436,-6.4373,-6.4542,-6.4469,-6.4488,-6.4578,-6.4748,-6.4762,-6.4776,-6.4907,-6.4939,-6.4966,0,0,0,0,0,0,-6.4364,-6.4356,-6.4314,-6.4447,-6.4469,-6.4467,-6.4542,-6.4491,-6.4534,-6.452,-6.4467,-6.4471,-6.4592,-6.4596,-6.4515,-6.4733,-6.4633,-6.4651,-6.4726,-6.4756,-6.478,-6.4777,-6.4399,0,0,0,0,0,-6.4409,-6.4474,-6.4463,-6.4582,-6.4595,-6.4567,-6.46,-6.4566,-6.4587,-6.4596,-6.4595,-6.462,-6.4677,-6.4717,-6.477,-6.4918,-6.4919,-6.4989,-6.5013,-6.5033,-6.505,-6.5129,-6.5159,-6.4829,-6.4829,-6.4829,0,0,-6.4504,-6.4507,-6.4551,-6.4609,-6.4622,-6.4691,-6.4576,-6.4653,-6.4704,-6.4608,-6.4713,-6.4713,-6.4737,-6.4867,-6.4924,-6.4874,-6.5141,-6.5051,-6.5067,-6.5073,-6.5146,-6.5177,-6.5205,-6.4838,-6.4837,-6.4835,0,0,-6.4711,-6.472,-6.482,-6.4835,-6.4856,-6.4837,-6.4861,-6.4867,-6.4863,-6.4967,-6.4897,-6.4958,-6.5059,-6.5078,-6.5102,-6.5318,-6.5261,-6.5336,-6.5463,-6.5541,-6.5567,-6.559,-6.5667,-6.5695,-6.5353,-6.5353,-6.5354,0,-6.4826,-6.4926,-6.4878,-6.496,-6.4988,-6.4904,-6.5005,-6.5023,-6.5061,-6.5083,-6.5025,-6.5151,-6.5161,-6.5295,-6.5347,-6.5369,-6.5396,-6.5334,-6.5567,-6.5589,-6.561,-6.5683,-6.5712,-6.5362,-6.5361,-6.536,-6.5359,0,-6.5066,-6.5137,-6.5215,-6.5253,-6.529,-6.5382,-6.5348,-6.5392,-6.5355,-6.5342,-6.5449,-6.5458,-6.5512,-6.5541,-6.5506,-6.5671,-6.5638,-6.5575,-6.5473,-6.5651,-6.5719,-6.5747,-6.5375,-6.5372,-6.5369,-6.5367,0,0,-6.536,-6.537,-6.54,-6.5416,-6.5433,-6.5487,-6.5576,-6.5627,-6.5665,-6.5695,-6.5768,-6.5856,-6.5797,-6.5824,-6.5791,-6.5859,-6.603,-6.5787,-6.5787,-6.5832,-6.6212,-6.626,-6.6293,-6.5993,-6.5998,-6.6002,-6.621,0,-6.5564,-6.5714,-6.5674,-6.5824,-6.5889,-6.5811,-6.5888,-6.5908,-6.5898,-6.5953,-6.5943,-6.6006,-6.5924,-6.5939,-6.6003,-6.5996,-6.6106,-6.598,-6.6062,-6.6065,-6.6058,-6.6328,-6.6379,-6.6574,-6.6237,-6.6241,-6.6244,0,-6.5823,-6.5861,-6.6018,-6.6025,-6.605,-6.612,-6.6164,-6.6217,-6.6238,-6.6227,-6.6257,-6.621,-6.6299,-6.6197,-6.6318,-6.6234,-6.6265,-6.6267,-6.6273,-6.6279,-6.6165,-6.6342,-6.6636,-6.6665,-6.6285,-6.6282,-6.6279,0,-6.6021,-6.6112,-6.6218,-6.6234,-6.6245,-6.6296,-6.6303,-6.6319,-6.6352,-6.6391,-6.6412,-6.6462,-6.6489,-6.6529,-6.6497,-6.6426,-6.6624,-6.6519,-6.6618,-6.6619,-6.6663,-6.666,-6.6966,-6.6684,-6.6683,-6.6683,-6.6682,0,-6.6253,-6.6353,-6.6307,-6.6372,-6.6481,-6.6434,-6.6544,-6.6542,-6.6557,-6.6621,-6.6556,-6.6618,-6.6573,-6.6631,-6.6607,-6.6712,-6.6725,-6.6718,-6.6711,-6.6724,-6.6725,-6.6743,-6.6729,-6.669,-6.6689,-6.6687,-6.6686,0,-6.6494,-6.6467,-6.6577,-6.6578,-6.6581,-6.6661,-6.6662,-6.6723,-6.6709,-6.6791,-6.6808,-6.6787,-6.6852,-6.6824,-6.6894,-6.6877,-6.7012,-6.6986,-6.7004,-6.6998,-6.7097,-6.7089,-6.7426,-6.7468,-6.7159,-6.7162,-6.7164,0,-6.6643,-6.6717,-6.6727,-6.6764,-6.6776,-6.6837,-6.6871,-6.6829,-6.6866,-6.6897,-6.6954,-6.7014,-6.7059,-6.7168,-6.7159,-6.7212,-6.7187,-6.7302,-6.7195,-6.7206,-6.7189,-6.7185,-6.7192,-6.7323,-6.7327,-6.733,-6.7332,0,-6.6912,-6.6895,-6.6945,-6.6992,-6.7034,-6.7069,-6.7098,-6.7133,-6.7092,-6.7138,-6.7203,-6.7238,-6.7309,-6.7369,-6.7416,-6.7424,-6.7373,-6.7366,-6.7391,-6.7406,-6.7413,-6.741,-6.7063,-6.7358,-6.7356,-6.7354,-6.7352,-6.7351,-6.7111,-6.7174,-6.719,-6.7248,-6.7266,-6.7295,-6.7352,-6.7345,-6.7398,-6.7451,-6.7424,-6.75,-6.7521,-6.7578,-6.7594,-6.7654,-6.7609,-6.7646,-6.7655,-6.7665,-6.7678,-6.7404,-6.7662,-6.7661,-6.7661,-6.766,-6.7659,0,-6.7377,-6.7383,-6.7438,-6.748,-6.7527,-6.7472,-6.7502,-6.7545,-6.7613,-6.7635,-6.7681,-6.7757,-6.7815,-6.7812,-6.7866,-6.7915,-6.7892,-6.793,-6.7926,-6.7929,-6.7715,-6.7688,-6.7947,-6.7947,-6.7947,-6.7947,-6.7947,-6.7947,-6.752,-6.7623,-6.7608,-6.7719,-6.7725,-6.7799,-6.7821,-6.7848,-6.7865,-6.7952,-6.8,-6.7997,-6.801,-6.8064,-6.8116,-6.8113,-6.8136,-6.8183,-6.8172,-6.7973,-6.7944,-6.7917,-6.789,-6.8189,-6.8189,-6.8381,-6.8382,-6.8384]},{"header":{"parameterUnit":"m.s-1","parameterCategory":1,"la1":30.2991,"la2":30.254,"lo1":-89.0895,"lo2":-89.0444,"dy":0.0017,"dx":0.0017,"nx":28,"ny":28,"refTime":"2023-09-19T21:00:00:Z","depth":0,"parameterNumber":3,"parameterNumberName":"V-component_of_WINDS"},"data":[0,0,0,0,0,0,0,0,0,0,0,0,0,0,0,0,0,0,0,0,0,0,0,0,0,0,0,0,0,0,0,0,0,0,0,0,0,0,0,0,0,0,0,0,0,0,0,0,0,0,0,0,0,0,0,0,0,0,-0.5557,-0.5556,0,-0.5439,-0.5437,-0.5436,-0.5353,-0.5353,-0.5352,-0.5351,-0.5232,-0.5229,-0.5226,0,0,0,0,0,0,0,0,0,0,0,0,0,-0.5711,-0.5709,-0.5557,-0.5556,-0.5554,-0.5439,-0.5437,-0.5436,-0.5353,-0.5353,-0.5352,-0.5351,-0.5232,-0.5229,-0.5226,0,0,0,0,0,0,0,0,0,0,0,0,0,-0.5624,-0.5708,-0.5557,-0.5499,-0.5493,-0.5439,-0.5437,-0.5435,-0.5354,-0.5353,-0.5352,-0.5351,-0.5233,-0.523,-0.5226,-0.5221,0,0,-0.5214,-0.5212,0,0,0,0,0,0,0,0,-0.5629,-0.5618,-0.5509,-0.5503,-0.5496,-0.541,-0.5447,-0.5363,-0.5354,-0.5407,-0.5351,-0.535,-0.5292,-0.5283,-0.5263,-0.5215,-0.521,-0.5214,-0.5211,-0.5209,-0.5208,0,0,0,0,0,0,0,-0.5635,-0.5623,-0.551,-0.5508,-0.55,-0.5479,-0.5465,-0.5431,-0.5356,-0.5402,-0.5396,-0.5383,-0.5288,-0.5267,-0.5259,-0.5208,-0.5214,-0.521,-0.5208,-0.5206,-0.5148,-0.5148,0,0,0,0,0,0,-0.565,-0.5628,-0.5514,-0.5507,-0.5561,-0.5477,-0.5462,-0.5438,-0.5356,-0.5343,-0.5384,-0.5379,-0.5274,-0.5264,-0.5255,-0.5242,-0.521,-0.5206,-0.5204,-0.5147,-0.5148,-0.5149,0,0,0,0,0,0,-0.5654,-0.5641,-0.5519,-0.5566,-0.5549,-0.5475,-0.545,-0.5437,-0.5415,-0.5342,-0.5328,-0.5376,-0.5273,-0.526,-0.5229,-0.5237,-0.5204,-0.5201,-0.5146,-0.5147,-0.5148,-0.5217,0,0,0,0,0,0,-0.5658,-0.5642,-0.564,-0.5566,-0.5546,-0.5496,-0.545,-0.5435,-0.5409,-0.5402,-0.5331,-0.5319,-0.5271,-0.5235,-0.5225,-0.5231,-0.5198,-0.5145,-0.5147,-0.5148,-0.5214,-0.522,-0.5226,0,0,0,0,0,-0.5664,-0.5665,-0.5641,-0.5627,-0.5542,-0.5496,-0.5485,-0.543,-0.541,-0.5407,-0.5359,-0.5321,-0.5238,-0.5233,-0.5221,-0.5225,-0.5144,-0.5146,-0.5148,-0.5211,-0.5219,-0.5226,0,0,0,0,0,0,-0.5743,-0.5655,-0.5626,-0.5604,-0.5558,-0.5483,-0.5477,-0.544,-0.54,-0.5395,-0.5328,-0.5313,-0.5288,-0.5254,-0.525,-0.5215,-0.5186,-0.5186,-0.5238,-0.5245,-0.5251,-0.526,-0.5194,0,0,0,0,0,-0.5758,-0.5728,-0.5652,-0.5639,-0.5618,-0.5552,-0.553,-0.549,-0.5441,-0.5421,-0.5371,-0.5325,-0.5287,-0.5265,-0.5227,-0.5208,-0.5191,-0.5205,-0.5211,-0.5217,-0.5217,-0.5202,-0.5207,-0.5155,-0.5155,-0.5154,0,0,-0.5788,-0.5736,-0.5722,-0.5654,-0.5614,-0.5584,-0.5536,-0.5507,-0.5483,-0.5417,-0.5384,-0.5346,-0.5289,-0.5263,-0.525,-0.5234,-0.5227,-0.5219,-0.5224,-0.5221,-0.5204,-0.5209,-0.5214,-0.5156,-0.5156,-0.5155,0,0,-0.5828,-0.5786,-0.5769,-0.573,-0.5669,-0.5625,-0.5621,-0.555,-0.5522,-0.5487,-0.5436,-0.5407,-0.5345,-0.5306,-0.5278,-0.5299,-0.5262,-0.5289,-0.5321,-0.5307,-0.5312,-0.5315,-0.5321,-0.5324,-0.5289,-0.529,-0.529,0,-0.5873,-0.5826,-0.5766,-0.5738,-0.5709,-0.5646,-0.5628,-0.5593,-0.5524,-0.5505,-0.5488,-0.5406,-0.5364,-0.5327,-0.5332,-0.5312,-0.5305,-0.5297,-0.5316,-0.5318,-0.5321,-0.5326,-0.5328,-0.5293,-0.5293,-0.5292,-0.5292,0,-0.5883,-0.5851,-0.5845,-0.5778,-0.5748,-0.5726,-0.5662,-0.5639,-0.5602,-0.5559,-0.5523,-0.547,-0.5419,-0.5407,-0.5372,-0.5365,-0.5356,-0.5329,-0.5298,-0.533,-0.5333,-0.5335,-0.5298,-0.5297,-0.5296,-0.5295,0,0,-0.597,-0.5869,-0.5867,-0.5835,-0.5763,-0.5736,-0.5711,-0.5659,-0.564,-0.5594,-0.557,-0.5517,-0.549,-0.5458,-0.5417,-0.5406,-0.5423,-0.5378,-0.5376,-0.5388,-0.541,-0.5431,-0.5434,-0.5398,-0.5399,-0.5399,-0.5414,0,-0.5998,-0.5948,-0.5892,-0.5861,-0.5829,-0.5767,-0.5744,-0.5697,-0.5656,-0.5622,-0.5577,-0.554,-0.5508,-0.5488,-0.5473,-0.5425,-0.5427,-0.5423,-0.5374,-0.5373,-0.539,-0.5436,-0.5458,-0.5476,-0.5416,-0.5416,-0.5416,0,-0.6023,-0.5978,-0.5944,-0.5872,-0.5856,-0.5837,-0.5784,-0.5753,-0.5698,-0.5668,-0.5632,-0.5587,-0.5556,-0.553,-0.5484,-0.5482,-0.5459,-0.5432,-0.5431,-0.5424,-0.5396,-0.5429,-0.548,-0.5483,-0.5418,-0.5418,-0.5417,0,-0.6088,-0.6019,-0.5989,-0.5963,-0.5879,-0.5866,-0.5831,-0.5774,-0.5746,-0.57,-0.5681,-0.5632,-0.5605,-0.5568,-0.5511,-0.5498,-0.5471,-0.5441,-0.5445,-0.5447,-0.5442,-0.5443,-0.5489,-0.5429,-0.5429,-0.5429,-0.5429,0,-0.6124,-0.6105,-0.6016,-0.5998,-0.5974,-0.591,-0.5888,-0.5846,-0.5796,-0.5768,-0.5712,-0.5686,-0.5613,-0.5579,-0.5534,-0.5502,-0.5491,-0.5466,-0.5454,-0.547,-0.5473,-0.5453,-0.545,-0.543,-0.543,-0.543,-0.5429,0,-0.6192,-0.6133,-0.6095,-0.6018,-0.5998,-0.5983,-0.5917,-0.5896,-0.585,-0.5815,-0.5803,-0.5732,-0.5688,-0.5627,-0.5566,-0.5535,-0.5509,-0.5491,-0.5528,-0.552,-0.5527,-0.5527,-0.5561,-0.5562,-0.5504,-0.5504,-0.5505,0,-0.6219,-0.6202,-0.6122,-0.6099,-0.6064,-0.6028,-0.5998,-0.5934,-0.5905,-0.5839,-0.5826,-0.5777,-0.5735,-0.5668,-0.561,-0.5562,-0.5541,-0.5557,-0.5534,-0.555,-0.554,-0.5541,-0.5538,-0.5563,-0.5564,-0.5564,-0.5565,0,-0.6271,-0.6241,-0.6201,-0.615,-0.6116,-0.6072,-0.6026,-0.601,-0.5936,-0.5906,-0.586,-0.5827,-0.5763,-0.5715,-0.5658,-0.5621,-0.558,-0.5573,-0.557,-0.5586,-0.5608,-0.5594,-0.5541,-0.5572,-0.5571,-0.5571,-0.557,-0.557,-0.6318,-0.6299,-0.6239,-0.6195,-0.6154,-0.6111,-0.6087,-0.6038,-0.5998,-0.594,-0.5904,-0.5859,-0.5801,-0.5721,-0.5685,-0.5649,-0.5632,-0.563,-0.5629,-0.5629,-0.5634,-0.5614,-0.5638,-0.5638,-0.5638,-0.5638,-0.5637,0,-0.6366,-0.6323,-0.6284,-0.622,-0.6185,-0.6149,-0.6096,-0.6069,-0.603,-0.5979,-0.5938,-0.5884,-0.5837,-0.5775,-0.5723,-0.5705,-0.5685,-0.5694,-0.5694,-0.5685,-0.5652,-0.5658,-0.5711,-0.5711,-0.5711,-0.5711,-0.5711,-0.571,-0.6386,-0.6352,-0.6316,-0.626,-0.6218,-0.6173,-0.6145,-0.6105,-0.6064,-0.6006,-0.5966,-0.5925,-0.5869,-0.5813,-0.5767,-0.575,-0.5733,-0.5747,-0.5724,-0.5694,-0.5688,-0.5682,-0.5687,-0.5744,-0.5744,-0.5759,-0.5759,-0.576]}]]